Location: Kirkcaldy
(50.3333°N, 113.2333°W)
Time: 03:48:00
(UTC+00:00)

ITUPSAT 1 - Visible Passes

Search period start: 07 December 2023 00:00
Search period end: 17 December 2023 00:00
Orbit: 697 x 707 km, 98.5° (Epoch: 06 December)

Date Brightness Start Highest point End Pass type
(mag) Time Alt. Az. Time Alt. Az. Time Alt. Az.
09 Dec ? 14:37:30 10° E 14:40:28 17° NE 14:43:26 10° NNE visible
11 Dec ? 14:26:03 10° E 14:28:20 13° NE 14:30:38 10° NNE visible
13 Dec ? 14:15:02 10° ENE 14:16:13 11° NE 14:17:24 10° NE visible
16 Dec ? 14:43:00 10° E 14:46:09 18° ENE 14:49:19 10° NNE visible
